Showing default

NAXING 1, 28221

Orbit data source: Space-Track

NAXING 1, 28221 is a payload satellite owned by CASC (CN) in SSO that was launched on Sun, 18 Apr 2004 UTC via a CHANG ZHENG 2C launch vehicle from the Xichang Space Center, China (XSC). Payload-class satellites include a variety of spacecraft equipped with specific instruments for various scientific and technological missions. These include communications satellites like Starlink; space stations such as the ISS; scientific satellites like the Hubble; Earth observation satellites from companies like Planet Labs, Umbra, and HawkEye 360; GPS; miniature CubeSats for education and research; and military/defense satellites.

Loading next visibility...
Identifier
28221, 2004-012B
Orbit
SSO
Country
Flag of CNCN / PRC
Related business
Manufacturer
Tsinghua
Mission
Civil Technology
Bus & Motor
NX, Unknown motor
Mass
25 kg wet, 25 kg dry
Launch date (UTC)
2004-04-18 (22 years ago)
Launch vehicle
CHANG ZHENG 2C
Launch site
Xichang Space Center, China (XSC)
Object type
Payload
Rocket body
Debris
Shape & HBR
Box, 0.1 m
Radar Cross Section
0.060 m², Medium (>0.1 m² and < 1m²)

Expand to show TLE details & history
Last TLE update: 17 hours ago

TLE from 17 hours ago
0 NAXING 1
1 28221U 04012B   26034.50607866  .00002221  00000-0  16009-3 0  9991
2 28221  98.0168  57.1678 0011056 173.1232 187.0147 15.05234848187133
Epoch: 2026-02-03T12:08Z
TLE epoch observation values (Epoch: 2026-02-03T12:08:45.196Z)
Latitude
-0.00001°
Longitude
101.29345°
Altitude
561.442 km
Speed
7.576 km/s
True Right ascension
03h 48m 40s
True Declination
0° 00' 00"
Sunlit
Object was in daylight at epoch
Visualization orbit readout
Latitude
Unknown
Longitude
Unknown
Altitude
Unknown
Speed
Unknown
Apparent Right ascension
Unknown
Apparent Declination
Unknown
Sunlit
N/A
Visualization observer readout
Local Sidereal Time
07:07:59
Azimuth
Unknown
Elevation
Unknown
Doppler factor
Unknown
Orbital elements
Apogee altitude
555.455 km
Perigee altitude
540.14 km
Semi-major axis
6,925.934 km
Eccentricity
0.00111
Inclination
98.0168°
RAAN
57.1678°
Arg. of periapsis
173.1232°
True anomaly
186.99925°
Mean anomaly
187.0147°
Eccentric anomaly
187.00697°
Mean motion
3.76553 °/min
Orbital period
95.6 mins
BSTAR
0.00016009
Loading maneuver chart data...
Computing Atmospheric mass density...
Loading historical data...
Loading historical data...
Loading historical data...
Loading historical data...
Loading historical data...
Loading historical data...
Loading historical data...

Documentation

Showing up to 5 results
|